Current weather by "City, St" or "zip code"  
 

Current Conditions: Albert Whitted Airport, FL

Fair


77.0 F

Last Updated on May 21 2022, 4:53 am EDT
Humidity: 77%
Wind Speed: SE 12.7 mph
Barometer 30.09 in
Dewpoint: 69.1 F
Visibility: 10.00 mi
Precip: --
Heat Index: NA
Wind Chill: NA
Current conditions at:

Albert Whitted Airport, FL (KSPG)

Lat: 27.76852 Lon: 82.62564

Local Radar Image active severe weather and emergency alerts image image weather storm and storm spotter reports image weather observation monitoring service image
Local
Radar
Active
Alerts
Storm Reports Obs
Monitoring

Sign-up For Email & Text Message Weather Alert Notification Services



Advertise Here

Observation History for Albert Whitted Airport, FL


Time Wind
(mph)
Vis
(mi)
Weather Precip (in) Temperature (F) Relative
Humidity
Wind
Chill
(F)
Heat
Index
(F)
Pressure
Air Dwpt altimeter
(in)
sea level
(mb)
Rmks
4:53 am EDT SE 12.7 10.00 Fair -- 77.0 69.1 77% NA NA 30.09 1018.9
3:53 am EDT SE 13.8 10.00 Mostly Cloudy -- 77.0 68.0 74% NA NA 30.09 1018.7
2:53 am EDT SE 17.3 10.00 A Few Clouds -- 77.0 68.0 74% NA NA 30.08 1018.4
1:53 am EDT SE 15.0 10.00 Mostly Cloudy -- 77.0 69.1 77% NA NA 30.09 1018.7
12:53 am EDT SE 17.3 10.00 Mostly Cloudy -- 77.0 69.1 77% NA NA 30.07 1018.1
11:53 pm EDT SE 23.0 10.00 Overcast and Breezy -- 78.0 69.1 74% NA NA 30.07 1018.1
10:53 pm EDT SE 23.0 10.00 Mostly Cloudy and Breezy -- 78.0 71.1 79% NA NA 30.08 1018.5
9:53 pm EDT SE 23.0 10.00 Partly Cloudy and Breezy -- 78.0 71.1 79% NA NA 30.06 1017.9
8:53 pm EDT SE 20.7 10.00 Mostly Cloudy and Breezy -- 81.0 71.1 72% NA 85 30.03 1017.0
7:53 pm EDT S 10.4 10.00 A Few Clouds -- 83.0 73.9 74% NA 90 30.03 1016.7
5:53 pm EDT S 11.5 G 19.6 10.00 Fair -- 83.0 73.0 72% NA 89 30.00 1015.7
4:53 pm EDT SW 11.5 G 21.9 10.00 Fair -- 83.0 72.0 70% NA 88 29.98 1015.2
3:53 pm EDT S 13.8 10.00 Partly Cloudy -- 86.0 73.0 65% NA 93 30.00 1015.7
2:53 pm EDT S 13.8 10.00 Mostly Cloudy -- 85.0 73.9 70% NA 93 30.00 1015.9
11:53 am EDT SE 8.1 10.00 Fair Trace 80.0 73.0 79% NA 84 30.03 1016.9
10:53 am EDT SE 9.2 10.00 A Few Clouds -- 77.0 72.0 85% NA NA 30.02 1016.6
9:53 am EDT S 16.1 10.00 Partly Cloudy 00.10 76.0 71.1 85% NA NA 30.03 1016.8
7:53 am EDT SE 10.4 10.00 Overcast -- 79.0 71.1 77% NA NA 30.00 1015.7
5:53 am EDT N 0.0 10.00 Fair -- 79.0 72.0 79% NA NA 29.94 1013.7

Regional Weather Observation


St. Petersburg/Clearwater Airport, FL (KPIE)

A Few Clouds
76.0 F

Tampa, Tampa International Airport, FL (KTPA)

Fair
77.0 F

Albert Whitted Airport, FL (KSPG)

Fair
77.0 F

Macdill Air Force Base, Fl., FL (KMCF)

Mostly Cloudy
74.0 F

Tampa, Peter O Knight Airport, FL (KTPF)

Overcast
NULL F

Tampa, Vandenberg Airport, FL (KVDF)

Fair
NULL F

Advertise Here


Advertise Here